Wind_Speed
18 20 23 24 26 30 31 29 31 34 32 28 26 29 32 32 28 31 32 34 34 37 41 44 47 47 46 57 59 54 58 70 64 63 58 59 64 64 62 58 54 53 51
25 22 23 21 25 28 31 31 33 38 33 28 30 33 31 29 30 32 33 35 39 42 45 46 48 50 48 53 58 62 71 73 70 68 67 65 68 66 66 60 59 59 60
31 31 29 27 26 32 35 33 30 35 29 29 30 37 33 26 31 33 38 43 45 46 46 49 50 47 56 57 65 65 68 73 76 73 72 75 80 77 74 72 72 67 69
28 32 32 31 31 30 32 31 30 32 26 34 37 38 33 34 38 41 43 46 48 50 52 49 47 51 56 64 71 71 71 72 72 74 76 80 79 82 81 81 76 82 83
26 28 31 33 34 34 32 30 29 29 33 37 37 29 32 34 38 42 44 44 45 51 54 54 50 59 68 72 75 78 81 82 82 88 90 91 90 91 91 93 90 88 88
29 29 29 32 33 32 30 30 32 31 34 32 27 29 33 28 31 34 38 42 47 54 62 62 62 63 72 75 83 83 81 81 86 89 92 94 96 99 104 105 107 107 104
33 33 30 31 32 30 30 26 27 26 28 30 30 31 32 32 38 42 48 50 56 58 64 62 68 73 75 79 89 91 93 95 91 92 94 97 104 115 116 116 115 115 115
37 36 33 30 27 28 27 26 27 28 30 28 30 38 45 44 43 45 51 52 54 61 64 68 72 73 78 88 91 92 95 99 99 101 108 116 122 124 124 123 121 118 115
40 41 37 29 29 27 22 21 24 24 26 30 37 43 44 51 56 62 62 63 61 63 67 76 80 75 91 95 97 102 105 107 111 116 123 121 122 123 122 119 112 109 110
41 42 43 35 35 34 29 26 29 31 32 35 39 42 46 50 51 52 62 65 68 71 81 86 85 83 98 104 102 101 103 108 115 130 134 127 127 123 118 116 113 106 100
37 40 43 43 41 38 37 34 36 37 40 39 43 47 47 48 48 51 57 66 71 79 85 92 84 95 102 112 112 113 116 125 127 140 136 131 126 119 107 97 90 89 86
39 41 44 43 45 46 45 44 43 41 44 45 46 47 51 51 57 65 61 67 68 80 84 85 88 103 110 118 120 122 130 132 140 138 128 124 112 99 90 83 80 76 77
43 45 44 44 48 51 52 51 50 48 51 48 49 52 56 62 63 66 64 65 75 84 82 95 97 109 117 120 128 134 138 141 142 131 119 106 92 83 80 78 73 69 71
48 45 46 46 47 49 53 56 55 54 58 56 59 63 69 68 71 77 75 75 76 86 92 95 106 119 124 132 136 143 142 145 137 126 104 92 84 78 74 72 68 65 66
50 49 49 49 49 50 52 52 50 54 58 65 67 68 75 74 78 80 84 83 81 86 92 100 113 117 129 133 144 149 148 142 136 109 93 84 79 73 70 68 65 60 60
53 52 51 49 51 50 51 51 53 53 60 66 68 72 77 77 81 87 83 85 93 99 96 111 117 125 131 138 145 148 148 140 121 99 87 79 75 69 64 63 59 55 55
55 55 53 52 55 55 54 52 54 58 62 66 72 75 77 82 89 85 89 93 98 102 104 115 124 132 134 146 149 151 143 129 107 93 82 76 71 63 57 56 54 50 48
58 57 56 56 58 60 57 57 57 61 63 70 73 76 80 87 86 93 99 105 105 110 116 118 127 137 144 153 151 147 139 116 99 88 82 74 64 57 53 50 47 46 42
61 59 59 61 61 62 61 61 62 66 69 70 73 80 85 87 92 99 101 102 110 115 122 128 135 147 147 154 148 142 125 104 92 83 75 69 60 54 47 44 40 40 34
57 59 62 62 62 66 63 64 67 69 69 72 76 82 86 89 95 99 102 109 110 118 125 136 142 146 150 150 145 132 114 98 87 77 73 60 57 49 43 39 36 32 30
57 59 64 63 66 70 68 68 70 71 71 75 81 86 89 94 98 101 108 110 115 121 132 140 151 148 151 146 139 123 105 91 82 72 67 54 54 44 40 35 31 28 29
56 59 62 64 71 71 71 71 71 73 76 79 85 89 93 96 102 108 112 116 121 128 136 142 147 148 158 141 134 116 98 86 73 72 64 52 47 42 37 31 29 24 27
62 58 61 67 73 70 72 73 75 79 81 83 88 91 96 100 106 111 117 118 126 135 141 147 150 152 156 133 128 112 95 84 73 65 59 51 44 37 33 29 24 22 25
59 59 66 71 70 71 72 74 78 79 81 86 90 94 101 105 106 112 113 120 131 136 149 149 155 152 151 138 121 103 88 81 73 63 56 48 41 34 29 24 20 20 24
57 64 70 71 71 73 77 78 78 81 84 89 93 99 101 105 110 109 115 127 132 143 149 152 156 151 139 133 111 95 84 74 70 61 53 46 39 31 25 19 17 19 24
59 66 69 70 74 76 75 74 79 85 87 91 95 99 105 106 105 113 120 127 138 142 149 154 156 156 135 123 107 91 80 71 65 57 50 42 34 28 20 16 15 17 21
Wind_Direction
308 311 307 305 291 297 298 288 286 291 288 289 289 297 304 299 298 313 315 316 315 312 314 315 316 309 305 319 313 309 309 310 310 308 307 306 305 299 291 278 276 277 274
291 289 292 303 284 285 292 293 291 288 282 286 285 295 296 293 300 304 308 309 310 309 309 309 313 310 315 318 319 307 309 307 308 306 305 300 301 301 294 281 277 279 278
299 289 285 286 290 288 284 283 298 305 279 291 293 294 293 299 299 299 300 302 302 304 305 308 313 314 319 316 316 314 305 302 302 302 298 300 300 296 294 289 275 276 277
303 297 292 287 286 285 285 288 291 295 286 291 297 293 294 287 293 296 296 302 304 305 306 309 304 306 320 319 317 314 309 304 307 304 297 297 297 295 294 288 281 274 276
304 302 302 291 287 285 285 283 288 290 287 292 294 291 300 299 296 298 302 302 303 305 309 306 308 309 316 315 317 316 312 309 304 305 305 302 299 298 296 295 290 283 278
304 302 305 297 286 285 286 290 294 296 300 300 303 302 301 311 312 308 305 298 301 308 313 309 306 307 313 310 310 310 312 308 305 303 301 301 298 298 298 295 291 287 285
305 303 305 305 297 289 289 299 301 302 300 303 302 304 306 318 316 316 312 311 312 314 311 308 305 309 309 311 311 309 311 312 305 301 301 299 297 295 296 297 293 287 284
295 298 300 304 295 298 295 302 305 309 308 300 304 311 314 311 307 304 304 309 309 311 311 306 310 308 312 314 317 314 311 309 305 301 300 302 300 299 298 295 290 287 282
288 293 295 297 297 303 302 307 310 313 311 314 314 308 309 306 307 311 312 313 311 307 310 310 313 309 315 316 318 317 313 310 309 306 302 302 300 299 299 294 289 285 281
285 293 290 293 292 297 297 296 302 307 303 308 312 310 308 314 314 311 310 310 304 309 312 310 312 310 317 319 318 319 319 316 314 313 309 304 302 301 298 295 289 281 276
288 291 289 293 290 287 294 292 296 304 306 302 303 304 309 311 309 306 300 303 307 311 311 309 308 311 317 320 320 319 318 317 316 314 309 306 303 301 296 290 286 279 274
291 289 292 290 290 290 290 290 292 299 302 302 300 302 305 311 315 315 310 305 307 312 310 308 303 310 314 320 322 321 320 320 317 314 309 306 304 299 294 290 286 280 276
299 290 293 287 289 289 290 296 298 302 300 299 298 306 308 315 313 315 308 305 309 311 306 307 306 311 318 320 322 323 322 320 313 315 313 308 304 299 295 292 286 280 275
303 294 292 289 294 291 288 292 299 299 296 296 297 304 308 314 315 314 314 311 314 309 309 306 312 315 319 322 323 325 322 318 317 317 314 308 305 301 297 291 285 278 272
302 299 294 287 291 293 295 297 299 305 303 301 295 301 308 312 312 312 311 313 313 309 310 309 314 319 321 322 324 326 321 319 320 317 313 309 305 301 297 291 285 279 270
298 299 296 288 290 292 296 299 300 300 298 302 302 302 305 309 314 313 313 313 317 318 315 315 317 320 322 326 326 324 321 320 320 317 313 309 306 301 294 288 284 277 270
293 296 293 292 290 293 295 295 297 298 296 299 303 306 305 308 310 313 314 316 315 318 317 318 321 321 324 324 326 324 323 324 321 316 313 309 306 302 294 288 284 276 269
291 292 290 289 290 293 292 293 292 295 296 301 303 303 307 309 309 308 315 317 319 320 318 320 321 324 323 325 326 324 325 323 320 317 314 311 308 302 296 290 284 275 266
290 290 288 289 293 295 291 289 293 294 296 302 302 306 308 311 311 311 318 318 320 317 318 321 326 324 327 327 326 326 325 324 321 318 314 312 310 305 299 292 284 272 262
287 289 287 291 292 293 289 288 293 296 298 300 303 308 312 313 311 318 319 317 317 319 320 324 325 326 327 328 328 328 325 325 322 321 315 316 310 307 300 292 281 273 256
290 286 287 290 291 292 289 291 295 298 298 298 304 310 313 310 313 316 317 315 317 319 322 325 325 327 329 329 329 327 327 327 323 322 317 321 312 309 303 295 282 268 250
287 287 287 289 290 291 289 293 296 297 296 299 307 310 310 312 314 314 315 316 318 321 323 325 326 328 331 332 331 328 328 327 325 323 321 324 316 311 307 296 280 262 242
288 287 287 289 289 289 289 295 295 296 298 301 304 307 308 310 312 312 314 315 319 320 324 326 327 327 331 332 331 329 330 329 326 326 325 324 317 311 305 292 277 253 234
291 288 287 286 284 287 292 295 296 296 296 298 302 305 310 309 311 313 313 317 319 322 323 324 326 328 331 333 332 329 330 329 327 326 327 322 316 312 304 291 274 245 224
287 282 281 281 284 288 295 296 295 293 296 297 304 307 307 308 312 310 313 319 319 322 324 326 326 327 331 334 331 330 330 329 327 327 326 322 317 313 305 290 262 233 218
281 278 278 282 285 291 292 294 294 295 296 302 303 304 308 310 308 311 313 316 319 320 324 324 327 329 333 333 331 330 331 330 328 327 325 323 317 313 301 280 249 225 213
Height
10793 10790 10787 10787 10787 10786 10784 10781 10778 10776 10774 10772 10770 10767 10764 10761 10760 10759 10756 10753 10751 10747 10745 10742 10738 10735 10732 10729 10725 10720 10717 10714 10709 10705 10701 10698 10694 10692 10690 10686 10683 10680 10678
10789 10787 10785 10781 10780 10778 10778 10776 10772 10770 10768 10767 10764 10762 10760 10758 10756 10753 10749 10747 10745 10742 10740 10737 10732 10727 10725 10722 10718 10714 10708 10700 10696 10692 10688 10684 10679 10678 10676 10672 10669 10668 10666
10782 10781 10780 10777 10776 10775 10773 10771 10767 10764 10762 10760 10759 10756 10754 10753 10751 10748 10744 10742 10738 10734 10730 10727 10722 10718 10713 10708 10704 10701 10696 10690 10685 10680 10672 10668 10664 10662 10660 10656 10651 10649 10647
10779 10775 10773 10772 10770 10769 10766 10763 10760 10757 10756 10753 10751 10748 10748 10747 10744 10741 10737 10734 10729 10725 10721 10718 10714 10711 10705 10699 10693 10688 10682 10674 10670 10660 10655 10651 10644 10641 10637 10634 10631 10626 10622
10775 10772 10768 10766 10763 10759 10758 10756 10753 10752 10750 10747 10744 10741 10741 10740 10735 10732 10728 10725 10719 10714 10711 10707 10704 10698 10693 10688 10681 10673 10664 10657 10649 10640 10633 10628 10621 10616 10611 10608 10605 10604 10602
10770 10766 10764 10760 10755 10753 10751 10749 10747 10746 10743 10741 10738 10735 10733 10731 10726 10724 10719 10715 10709 10702 10698 10694 10689 10685 10678 10671 10665 10659 10653 10644 10631 10621 10613 10603 10595 10589 10582 10576 10571 10567 10566
10762 10758 10757 10755 10751 10747 10745 10743 10741 10740 10736 10734 10731 10728 10725 10723 10718 10714 10709 10704 10699 10692 10686 10679 10674 10669 10664 10656 10647 10638 10629 10620 10611 10601 10592 10581 10569 10559 10549 10543 10538 10534 10532
10757 10753 10751 10749 10744 10741 10739 10737 10734 10733 10730 10727 10724 10720 10715 10711 10707 10703 10696 10691 10687 10682 10675 10668 10660 10652 10645 10637 10627 10616 10605 10594 10582 10569 10558 10549 10535 10522 10509 10498 10489 10486 10487
10751 10747 10745 10743 10738 10736 10733 10730 10727 10726 10724 10720 10717 10712 10708 10702 10696 10684 10680 10677 10671 10664 10657 10650 10644 10636 10626 10615 10603 10591 10580 10567 10551 10538 10523 10508 10493 10477 10464 10453 10444 10438 10435
10745 10741 10737 10737 10731 10728 10724 10721 10719 10717 10714 10710 10708 10703 10699 10694 10691 10689 10673 10663 10654 10647 10639 10629 10625 10616 10607 10595 10582 10567 10554 10540 10523 10504 10483 10467 10452 10439 10426 10409 10396 10388 10389
10736 10734 10729 10727 10724 10720 10716 10712 10709 10706 10703 10698 10694 10689 10685 10681 10679 10677 10671 10657 10646 10635 10625 10613 10605 10595 10582 10571 10556 10541 10526 10513 10490 10466 10441 10420 10404 10388 10376 10359 10353 10347 10345
10726 10723 10721 10717 10714 10711 10709 10705 10701 10697 10692 10687 10683 10677 10672 10667 10661 10657 10651 10643 10637 10621 10607 10592 10584 10572 10557 10542 10527 10510 10494 10469 10450 10426 10398 10374 10358 10344 10329 10322 10317 10313 10308
10717 10713 10711 10708 10704 10700 10696 10693 10690 10686 10681 10676 10671 10664 10659 10653 10648 10642 10637 10630 10622 10607 10592 10572 10560 10547 10532 10514 10495 10478 10452 10429 10406 10383 10356 10330 10317 10307 10295 10286 10285 10282 10278
10707 10704 10700 10696 10692 10689 10685 10682 10679 10674 10669 10664 10658 10651 10644 10637 10631 10625 10618 10613 10605 10591 10575 10557 10539 10521 10505 10484 10462 10441 10418 10392 10362 10339 10318 10298 10284 10276 10265 10258 10255 10253 10252
10697 10694 10690 10686 10681 10677 10673 10670 10667 10662 10657 10651 10644 10638 10630 10622 10614 10606 10598 10589 10583 10578 10564 10541 10527 10504 10483 10459 10433 10407 10381 10354 10326 10304 10288 10270 10258 10250 10239 10231 10228 10227 10227
10685 10683 10679 10675 10671 10666 10662 10659 10654 10649 10644 10637 10630 10622 10615 10606 10597 10587 10578 10568 10559 10551 10544 10519 10502 10480 10460 10436 10408 10379 10347 10320 10293 10272 10259 10244 10233 10225 10215 10207 10204 10203 10203
10673 10670 10667 10663 10658 10654 10649 10645 10641 10636 10629 10622 10615 10607 10599 10590 10580 10569 10558 10547 10536 10526 10517 10501 10471 10455 10433 10410 10382 10348 10313 10286 10265 10245 10232 10221 10208 10198 10191 10185 10182 10181 10182
10661 10658 10654 10649 10645 10640 10636 10632 10628 10621 10615 10607 10599 10591 10583 10574 10563 10553 10539 10526 10513 10498 10486 10477 10453 10431 10405 10378 10350 10319 10287 10261 10238 10221 10206 10195 10186 10178 10170 10165 10163 10162 10165
10648 10645 10641 10637 10632 10628 10623 10618 10613 10607 10600 10592 10583 10576 10568 10558 10547 10534 10519 10505 10491 10474 10458 10443 10427 10401 10374 10348 10319 10289 10258 10238 10215 10203 10187 10175 10167 10157 10152 10148 10147 10145 10150
10636 10631 10627 10623 10619 10614 10608 10603 10598 10591 10583 10576 10568 10560 10552 10542 10530 10516 10499 10485 10471 10457 10438 10418 10396 10375 10347 10320 10290 10268 10244 10215 10197 10182 10164 10161 10148 10141 10136 10133 10131 10133 10136
10622 10617 10613 10609 10605 10598 10593 10588 10583 10575 10567 10559 10552 10543 10534 10524 10511 10497 10482 10466 10453 10439 10421 10400 10375 10351 10323 10298 10269 10242 10222 10203 10179 10169 10152 10148 10131 10128 10123 10121 10120 10121 10124
10606 10602 10598 10595 10589 10583 10576 10572 10566 10558 10551 10543 10534 10525 10516 10505 10492 10477 10461 10447 10432 10419 10401 10380 10353 10332 10305 10281 10251 10224 10206 10187 10175 10152 10138 10133 10123 10117 10114 10112 10111 10112 10114
10590 10586 10584 10579 10573 10566 10560 10556 10549 10542 10534 10526 10517 10508 10499 10489 10476 10459 10444 10426 10409 10392 10373 10357 10336 10311 10290 10263 10237 10209 10185 10168 10155 10144 10130 10123 10114 10109 10106 10104 10104 10104 10107
10574 10570 10568 10563 10556 10549 10545 10540 10533 10525 10517 10509 10501 10492 10482 10470 10459 10445 10429 10410 10390 10369 10352 10335 10313 10289 10267 10244 10218 10196 10178 10159 10143 10132 10123 10114 10107 10104 10100 10098 10099 10099 10101
10559 10557 10554 10547 10540 10534 10529 10523 10516 10507 10500 10493 10486 10477 10465 10454 10443 10431 10415 10397 10376 10356 10333 10309 10289 10269 10247 10225 10204 10186 10167 10153 10136 10124 10115 10107 10103 10098 10095 10094 10094 10093 10096
10545 10542 10537 10530 10522 10519 10513 10506 10498 10491 10484 10477 10469 10459 10449 10438 10425 10412 10397 10381 10364 10342 10322 10298 10275 10252 10231 10210 10190 10173 10158 10144 10131 10117 10109 10103 10098 10094 10092 10090 10090 10091 10095